Location: Goettingen
(51.5300°N, 9.9433°E)
Time: 07:47:12
(UTC+02:00)

ISS - Pass Details

Date: 11 May 2021
Orbit: 417 x 422 km, 51.6° (Epoch: 18 May)

Event Time Altitude Azimuth Distance (km) Brightness Sun altitude
Exits shadow 02:04:21 62° 106° (ESE) 477 -3.6 -19.8°
Drops below altitude 10° 02:07:17 10° 81° (E) 1,506 -0.7 -19.7°
Sets 02:09:24 0° 80° (E) 2,372 0.4 -19.6°
